Wind_Speed
33 33 34 33 33 32 31 31 31 30 30 29 29 28 27 27 26 26 25 25 24 24 23 23 23 23 23 22 22 22 22 22 22 22 22 22 22 23 23 23 23 24 24
34 35 35 35 34 34 33 33 32 32 32 32 31 31 30 30 29 29 28 28 27 27 26 26 26 26 25 25 25 25 24 24 24 24 24 24 24 24 25 25 25 26 26
35 35 36 36 36 35 34 34 34 34 34 33 33 33 33 32 32 31 30 30 29 29 29 28 28 28 28 28 28 27 27 27 27 27 27 27 27 27 27 28 28 28 28
36 35 36 37 37 37 36 35 34 35 36 35 35 35 35 35 35 34 33 33 32 31 31 31 31 30 30 30 30 30 30 30 29 29 30 30 30 30 30 30 30 30 30
39 37 36 37 38 39 38 38 37 37 37 37 38 37 37 37 37 37 36 35 34 34 33 33 33 32 32 32 32 33 33 32 32 32 32 32 32 32 32 33 32 33 33
40 40 39 37 38 39 40 40 39 38 38 39 39 39 38 38 39 39 39 38 37 36 36 35 35 35 35 34 34 34 34 34 34 34 34 34 34 34 35 35 35 35 35
39 40 41 40 39 40 41 41 41 40 39 40 40 40 40 40 39 39 40 40 39 38 37 37 37 37 36 36 36 36 37 36 36 36 37 37 37 37 37 37 37 37 37
38 39 40 41 41 42 42 42 41 41 40 39 40 41 41 40 40 40 40 40 40 40 40 40 39 39 38 38 38 38 39 39 39 39 39 39 39 39 39 39 39 39 39
39 39 40 41 42 41 42 42 42 41 42 42 40 41 41 41 40 40 41 41 42 42 42 41 41 41 41 41 41 41 41 42 42 41 41 42 42 41 41 41 41 42 42
39 40 40 41 41 41 41 41 42 42 42 42 43 42 42 42 41 40 42 43 43 43 43 43 43 43 43 43 44 44 43 44 43 43 43 43 43 43 43 43 43 43 43
38 39 40 41 41 41 41 41 42 41 41 42 42 42 42 43 43 43 43 44 44 44 45 45 45 45 44 44 45 45 45 45 45 44 44 44 44 44 44 44 44 45 45
37 38 38 40 40 41 41 41 42 43 41 41 41 42 43 42 43 44 43 43 44 44 44 45 46 46 45 45 45 45 45 45 46 46 45 45 45 45 45 46 46 46 46
36 37 38 39 40 40 40 41 42 44 44 43 43 42 42 42 42 43 44 43 44 45 45 45 45 45 45 45 45 45 46 47 46 46 47 47 47 47 47 47 47 48 48
36 37 38 38 39 40 41 41 42 43 44 45 45 44 42 42 42 42 44 44 45 45 45 45 46 46 46 45 46 47 47 47 47 47 48 47 47 47 47 48 48 50 51
35 37 38 39 39 40 42 42 42 42 42 43 44 44 44 43 42 42 43 43 44 45 45 46 46 46 47 47 48 49 49 49 48 48 49 49 49 49 49 50 51 51 52
38 38 39 40 40 40 42 42 42 42 42 42 43 44 45 45 45 44 44 44 44 46 47 46 47 48 48 49 49 49 49 49 49 48 49 50 49 49 50 51 52 52 52
38 40 41 41 41 40 41 42 41 42 43 43 43 44 45 45 45 44 44 44 44 46 48 48 49 50 50 49 49 49 49 49 49 50 50 50 49 50 51 52 53 53 53
37 38 40 41 41 41 42 42 42 43 43 43 43 43 43 44 45 45 45 45 45 46 48 48 49 49 49 50 50 50 50 50 51 51 52 51 51 52 53 53 54 54 55
37 37 38 39 40 41 41 42 42 42 42 43 43 44 44 44 46 47 47 47 47 47 48 49 49 49 50 50 50 51 52 52 52 52 53 53 53 54 54 55 55 55 56
36 37 38 39 39 40 41 41 42 43 43 43 44 44 44 45 46 46 47 48 48 48 49 49 50 51 51 51 52 52 53 53 52 53 54 54 55 55 55 56 56 57 58
35 36 37 38 39 40 41 41 43 44 44 45 45 45 46 46 47 48 48 49 50 49 50 51 51 53 53 53 53 53 54 53 53 55 55 54 55 55 56 56 57 58 59
35 35 35 37 39 40 41 42 43 45 45 46 47 47 48 49 49 49 49 50 51 51 52 53 53 53 53 53 54 54 54 54 54 54 55 54 55 55 56 56 57 59 60
35 36 36 37 38 39 40 41 42 43 44 46 47 48 48 49 50 50 49 50 51 51 51 52 52 52 53 53 54 54 54 55 54 54 55 55 55 56 57 58 58 59 60
36 36 37 37 37 38 40 41 42 43 44 46 47 48 49 49 49 50 50 51 51 52 52 52 52 53 53 54 54 54 54 54 54 55 56 56 56 57 57 58 59 59 60
37 37 38 38 38 38 39 41 43 44 44 45 47 48 49 49 49 50 50 51 52 53 52 52 52 52 52 52 53 54 54 54 54 54 56 57 57 57 57 58 58 59 60
37 38 38 39 39 39 40 41 43 44 45 46 47 47 48 48 49 49 49 50 51 52 52 52 51 51 51 51 52 52 53 54 54 54 55 56 57 58 58 57 57 58 58
Wind_Direction
237 237 236 236 236 237 237 238 239 239 240 242 243 244 245 246 248 249 251 252 253 254 255 256 254 255 257 260 262 264 265 267 268 270 272 273 275 276 278 280 282 283 284
237 236 236 236 237 238 239 240 240 240 241 243 244 246 247 248 249 250 251 252 253 254 256 257 257 257 258 260 261 263 266 267 269 270 272 273 276 277 279 280 281 283 284
237 237 236 236 237 238 239 241 241 242 243 244 245 246 247 248 249 250 251 251 253 255 256 256 257 258 259 260 261 263 265 267 268 270 272 274 276 277 279 280 281 283 283
239 238 237 237 237 239 240 241 243 244 245 247 247 248 248 249 249 250 251 252 253 255 256 256 256 257 259 262 263 264 265 267 269 271 273 275 276 278 279 280 281 282 282
243 242 239 238 239 240 241 242 243 245 247 248 249 249 249 250 250 250 250 251 252 254 255 254 255 257 259 262 264 265 266 267 269 272 275 276 277 277 279 280 281 281 282
244 243 241 241 241 241 242 244 245 246 248 249 249 249 250 251 251 251 250 250 252 253 254 254 255 258 259 261 264 265 267 268 270 271 273 275 276 278 279 279 280 281 281
245 245 245 244 243 243 243 244 245 247 249 249 249 249 250 251 252 252 251 250 251 253 253 253 256 258 259 261 264 266 267 268 270 271 272 274 276 277 278 280 280 279 280
245 245 245 246 247 246 246 246 247 248 249 250 250 250 251 251 251 252 252 250 251 252 253 254 256 257 260 262 264 266 266 267 268 271 272 273 275 277 278 278 279 279 281
246 246 247 247 249 249 249 248 249 249 250 251 251 251 251 251 251 252 252 251 252 252 253 255 256 257 259 263 263 265 266 267 268 270 271 273 275 276 277 277 278 279 280
247 247 248 247 248 249 250 251 250 250 251 252 253 254 253 252 252 251 252 252 252 253 253 253 256 257 260 262 263 265 266 267 268 270 272 273 275 275 276 277 278 279 279
249 248 248 247 247 249 250 251 251 251 251 252 253 253 253 253 252 253 254 254 254 255 255 256 258 258 260 262 263 265 266 267 268 270 273 273 274 275 276 277 278 279 280
250 251 250 250 249 249 251 252 252 250 250 251 252 253 252 253 253 253 254 254 255 255 257 258 259 259 259 262 263 265 266 267 269 270 271 272 274 275 277 277 278 279 280
252 252 251 251 250 251 252 252 252 251 252 252 253 254 255 255 255 255 254 254 255 255 256 257 258 259 260 262 263 264 266 267 268 269 271 273 274 275 276 277 278 279 281
252 252 252 251 251 251 253 254 253 252 253 254 254 255 256 255 256 257 255 255 256 256 256 257 258 260 261 262 264 266 267 266 267 268 270 272 273 275 276 276 278 279 280
253 254 253 252 253 254 253 254 253 253 254 255 255 255 256 256 256 257 257 257 257 256 256 258 259 260 261 262 264 267 267 267 268 269 269 270 272 275 276 277 278 280 280
256 256 256 255 256 255 254 254 253 252 253 253 254 255 256 256 257 258 258 258 257 257 257 258 260 261 263 263 264 266 266 266 268 269 270 272 273 275 277 278 279 280 281
257 257 258 258 258 256 256 255 254 253 252 254 255 256 256 257 258 258 258 258 258 258 258 259 261 262 263 265 265 266 267 268 268 270 272 273 274 276 277 278 279 280 281
259 259 258 259 258 256 256 256 256 254 253 254 255 255 256 258 258 257 257 258 259 260 260 261 263 263 264 265 266 266 267 268 269 270 271 272 274 276 277 278 280 280 281
259 260 260 259 258 256 256 256 256 255 254 254 254 255 257 258 258 258 259 259 261 262 264 264 264 265 265 266 267 268 268 270 269 270 272 273 274 275 277 279 280 280 281
260 260 260 258 258 257 257 257 257 257 256 256 256 257 258 258 258 259 260 261 263 265 265 266 266 266 266 267 268 270 271 271 271 271 272 274 274 276 278 279 280 281 282
261 260 260 259 258 257 257 258 259 259 259 259 258 259 260 259 259 261 262 263 264 265 266 266 267 267 268 268 269 270 271 271 272 273 273 274 275 277 278 279 280 281 282
263 262 262 261 261 261 259 259 259 259 260 260 261 261 261 262 262 264 264 264 265 265 266 267 268 270 269 269 269 270 270 270 272 273 274 275 276 278 279 280 281 282 283
263 263 264 264 264 263 261 261 261 261 261 262 262 262 262 263 265 264 263 264 265 266 267 268 269 269 269 269 269 269 270 271 273 274 274 276 278 280 281 281 281 282 283
265 265 265 265 265 264 263 262 263 263 262 263 263 263 263 264 265 264 264 265 266 267 267 268 269 270 270 269 270 270 271 272 273 274 275 277 278 279 281 281 282 282 283
266 266 267 267 267 266 264 265 265 265 265 265 264 264 264 264 265 265 266 266 267 267 267 268 269 270 270 270 271 271 271 272 273 275 276 278 279 280 281 282 282 283 283
267 268 268 267 266 266 266 267 267 267 267 266 265 265 266 266 266 266 267 268 267 267 268 268 269 270 270 271 271 272 272 273 274 275 277 278 279 280 281 282 282 283 284
Height
5791 5793 5796 5798 5801 5803 5806 5808 5810 5812 5814 5816 5817 5819 5820 5822 5823 5824 5825 5826 5827 5828 5829 5830 5831 5831 5832 5832 5833 5833 5834 5834 5834 5834 5834 5833 5833 5833 5832 5831 5831 5830 5829
5783 5786 5788 5791 5794 5796 5799 5801 5803 5806 5808 5810 5811 5813 5814 5815 5817 5818 5819 5820 5821 5822 5823 5824 5825 5826 5826 5827 5827 5828 5828 5828 5829 5829 5828 5828 5828 5827 5827 5826 5825 5824 5823
5775 5778 5780 5783 5786 5789 5791 5794 5796 5798 5801 5802 5804 5806 5807 5808 5810 5811 5813 5814 5815 5816 5817 5818 5819 5819 5820 5821 5821 5822 5822 5823 5823 5823 5823 5822 5822 5822 5821 5820 5819 5818 5817
5767 5770 5772 5775 5778 5781 5783 5786 5789 5791 5792 5794 5796 5798 5799 5801 5802 5804 5805 5806 5808 5809 5810 5811 5812 5813 5814 5814 5815 5815 5816 5816 5816 5816 5816 5816 5816 5815 5815 5814 5813 5812 5811
5758 5761 5764 5766 5769 5772 5775 5777 5780 5782 5784 5786 5787 5789 5790 5792 5793 5795 5796 5798 5800 5801 5802 5803 5804 5805 5807 5807 5808 5808 5809 5809 5809 5809 5809 5809 5808 5808 5807 5807 5806 5805 5804
5750 5752 5755 5758 5760 5763 5766 5768 5771 5773 5775 5777 5778 5780 5781 5783 5784 5785 5787 5789 5790 5792 5793 5795 5796 5797 5799 5799 5800 5800 5801 5801 5801 5802 5801 5801 5801 5800 5800 5799 5798 5797 5796
5741 5743 5746 5749 5751 5754 5756 5758 5761 5763 5765 5766 5768 5770 5771 5773 5774 5775 5777 5779 5781 5783 5784 5786 5787 5789 5790 5791 5792 5792 5793 5793 5793 5793 5793 5793 5793 5792 5791 5791 5790 5789 5788
5732 5734 5737 5739 5741 5744 5746 5749 5751 5753 5755 5756 5758 5760 5762 5764 5764 5766 5768 5769 5771 5773 5775 5777 5778 5780 5781 5782 5783 5784 5784 5784 5784 5784 5784 5784 5783 5783 5782 5782 5781 5780 5779
5722 5725 5727 5729 5731 5734 5736 5739 5741 5743 5745 5746 5748 5750 5752 5753 5755 5757 5758 5760 5762 5764 5766 5767 5769 5770 5772 5772 5773 5774 5774 5774 5775 5775 5775 5774 5774 5773 5773 5772 5771 5770 5769
5713 5715 5718 5720 5722 5724 5726 5728 5731 5732 5734 5736 5738 5740 5742 5744 5745 5748 5749 5751 5752 5754 5756 5758 5759 5760 5761 5762 5763 5764 5764 5764 5764 5764 5765 5764 5764 5763 5763 5762 5761 5760 5759
5704 5706 5708 5710 5712 5714 5716 5719 5720 5722 5724 5726 5728 5730 5732 5733 5735 5737 5739 5741 5743 5744 5746 5748 5749 5750 5751 5751 5752 5753 5754 5754 5754 5754 5754 5754 5753 5753 5752 5751 5750 5749 5748
5695 5696 5698 5700 5702 5704 5707 5709 5710 5712 5714 5716 5718 5720 5722 5724 5725 5727 5729 5731 5733 5735 5736 5737 5739 5740 5741 5741 5742 5742 5743 5743 5743 5743 5743 5743 5743 5742 5741 5740 5739 5738 5737
5686 5687 5689 5690 5693 5695 5696 5698 5700 5702 5704 5706 5708 5710 5711 5713 5715 5716 5718 5720 5722 5724 5726 5727 5728 5729 5730 5731 5732 5732 5732 5732 5732 5732 5732 5732 5731 5731 5730 5729 5728 5727 5725
5677 5678 5679 5681 5683 5685 5686 5688 5690 5692 5694 5696 5697 5699 5701 5703 5705 5706 5708 5710 5711 5713 5715 5716 5717 5718 5719 5720 5720 5720 5721 5721 5721 5721 5720 5720 5720 5719 5718 5717 5716 5714 5713
5668 5670 5671 5672 5673 5674 5676 5677 5679 5681 5683 5685 5687 5688 5690 5692 5694 5696 5697 5699 5701 5702 5704 5705 5706 5707 5707 5708 5708 5708 5709 5709 5709 5709 5709 5708 5707 5707 5706 5705 5703 5702 5700
5659 5661 5661 5662 5663 5664 5666 5667 5668 5670 5672 5674 5675 5677 5680 5681 5683 5685 5686 5688 5689 5691 5692 5693 5694 5695 5695 5696 5696 5696 5696 5697 5697 5696 5696 5696 5695 5694 5693 5692 5690 5688 5687
5650 5650 5651 5652 5652 5654 5655 5656 5658 5659 5661 5663 5664 5666 5668 5670 5672 5673 5675 5676 5677 5678 5680 5681 5681 5682 5683 5683 5684 5684 5684 5684 5684 5684 5683 5682 5682 5681 5680 5678 5677 5675 5673
5639 5640 5641 5641 5642 5643 5645 5646 5647 5648 5650 5652 5653 5655 5656 5658 5659 5661 5663 5664 5665 5666 5667 5668 5669 5669 5670 5671 5671 5671 5671 5671 5671 5671 5670 5669 5669 5667 5666 5665 5663 5661 5659
5629 5630 5630 5631 5632 5633 5634 5635 5637 5638 5639 5641 5642 5643 5645 5646 5648 5649 5650 5652 5653 5653 5654 5655 5656 5657 5657 5658 5658 5658 5658 5657 5657 5657 5656 5655 5654 5653 5652 5650 5648 5647 5644
5619 5620 5620 5621 5622 5622 5624 5625 5626 5627 5629 5630 5631 5632 5633 5634 5635 5636 5638 5639 5639 5640 5641 5642 5643 5643 5644 5644 5643 5643 5643 5643 5643 5642 5641 5640 5639 5638 5637 5635 5634 5631 5629
5609 5610 5610 5611 5611 5612 5613 5614 5615 5616 5618 5619 5619 5620 5621 5622 5623 5624 5625 5625 5626 5626 5627 5628 5629 5629 5630 5630 5629 5629 5628 5628 5628 5627 5626 5625 5624 5623 5621 5619 5617 5615 5613
5600 5600 5600 5601 5601 5602 5603 5603 5604 5605 5606 5607 5608 5608 5609 5610 5610 5611 5611 5612 5612 5613 5613 5614 5614 5615 5615 5614 5614 5614 5613 5613 5613 5613 5611 5610 5608 5607 5605 5604 5601 5598 5596
5590 5590 5591 5591 5591 5591 5591 5592 5592 5593 5594 5594 5595 5596 5596 5597 5597 5597 5598 5598 5598 5598 5599 5599 5599 5600 5600 5599 5599 5599 5598 5598 5598 5597 5595 5595 5593 5591 5589 5587 5584 5581 5578
5580 5580 5580 5580 5580 5581 5581 5581 5581 5581 5582 5582 5582 5583 5583 5583 5583 5583 5584 5584 5584 5585 5585 5585 5585 5585 5584 5584 5584 5583 5583 5583 5582 5581 5579 5579 5577 5575 5573 5571 5568 5564 5561
5570 5570 5570 5570 5570 5570 5570 5570 5569 5569 5569 5570 5570 5570 5569 5570 5570 5570 5570 5570 5570 5570 5570 5570 5570 5570 5570 5569 5568 5568 5568 5567 5567 5566 5564 5562 5561 5559 5557 5555 5551 5548 5544
5559 5559 5559 5559 5559 5559 5559 5558 5557 5557 5557 5557 5557 5556 5556 5556 5556 5555 5555 5555 5556 5556 5555 5555 5555 5555 5555 5554 5554 5553 5553 5552 5551 5551 5548 5546 5545 5542 5541 5539 5535 5531 5527